Temp
16 16 16 16 16 16 15 15 15 15 15 15 15 16 16 16 16 16 16 16 16 16 16 16 16 16 16 16 16 15 15 15 15 15 15 14 14 14 14 14 14 14 14 14 13 13 13 13 12 12 12 12 12 12 12 12 12 12 12 12 12 11 11 11 11 11 11 11 11
16 16 16 16 16 16 16 16 16 16 15 16 16 16 16 16 16 16 16 16 16 16 16 16 16 16 16 15 15 15 15 15 15 15 15 14 14 14 14 14 14 14 14 14 14 13 13 13 13 13 13 13 13 12 12 12 12 12 12 12 11 11 11 11 11 11 11 11 11
16 16 16 16 16 15 15 16 16 16 16 16 16 16 16 16 16 16 16 16 16 16 15 15 15 15 15 15 15 15 15 15 15 15 15 14 14 14 14 14 14 14 14 14 14 13 13 13 13 13 13 13 12 12 12 12 12 12 12 11 11 10 10 11 11 11 11 11 11
15 15 15 15 15 15 15 15 15 15 15 15 15 15 15 15 15 15 15 15 15 15 15 15 15 15 15 15 15 15 15 15 15 15 14 14 14 14 14 14 14 14 14 14 13 13 13 13 13 13 12 12 12 12 12 12 12 12 11 11 10 10 11 11 11 11 11 11 11
15 15 15 15 15 15 15 15 15 15 15 15 15 15 15 15 15 15 15 15 15 15 15 15 15 15 15 15 15 15 15 15 14 14 14 14 14 14 14 14 14 14 13 13 13 13 13 13 12 12 12 12 12 12 12 12 12 11 11 11 10 10 10 10 11 11 11 11 11
15 15 15 15 15 15 15 15 15 15 15 15 15 14 14 14 14 14 14 14 14 14 14 14 14 14 14 14 14 14 14 14 14 14 14 14 14 14 14 13 13 13 13 13 13 13 12 12 12 12 12 12 12 12 11 11 11 11 10 10 10 10 10 11 11 11 11 11 11
14 14 14 14 14 14 14 14 14 14 14 14 14 14 14 14 14 14 14 14 14 14 14 14 14 14 14 14 14 14 14 14 14 14 14 13 13 13 13 13 13 12 12 12 12 12 12 12 12 11 11 11 11 11 11 11 10 10 10 10 10 11 11 11 11 11 11 11 10
14 14 14 14 14 14 14 14 14 14 14 14 14 14 14 14 14 14 14 14 14 14 14 13 13 13 13 13 14 13 13 13 13 13 13 13 13 13 12 12 12 12 12 12 12 12 12 11 11 11 11 11 11 11 10 10 10 10 10 11 11 11 11 11 11 11 10 10 10
13 13 13 13 13 13 13 13 13 13 13 13 13 14 13 13 13 13 13 13 13 13 13 13 13 13 13 13 13 13 13 13 13 13 12 12 12 12 12 12 12 11 11 12 11 11 11 11 11 11 11 11 10 10 10 11 11 11 11 11 11 11 11 10 10 10 10 10 10
13 13 13 13 13 13 13 13 13 13 13 13 13 13 13 13 13 13 13 13 13 13 12 12 12 12 12 12 12 12 12 12 12 12 12 12 12 11 11 11 11 11 11 11 11 11 11 11 11 11 10 10 10 10 11 11 11 11 11 11 11 10 10 10 10 10 10 10 10
13 13 13 13 13 13 13 13 13 13 13 13 13 13 13 13 12 12 12 12 12 12 12 12 12 12 12 12 12 12 12 12 11 11 11 11 11 11 11 11 11 11 11 11 11 11 11 11 11 11 10 10 10 11 11 11 11 11 11 10 10 10 10 10 10 10 10 10 10
13 12 12 12 12 12 12 12 12 12 12 12 12 12 12 12 12 12 12 12 12 11 11 11 11 11 11 11 11 11 11 11 11 11 11 11 11 11 11 11 11 11 11 11 11 11 11 10 10 11 11 10 10 10 11 11 10 10 10 10 10 10 10 10 10 10 10 10 10
12 12 12 12 12 12 12 12 12 12 12 12 12 12 12 12 11 11 11 11 11 11 11 11 11 11 11 11 11 11 11 11 11 11 11 11 11 11 11 11 11 11 10 11 11 11 10 10 10 10 10 10 10 10 10 10 10 10 10 10 10 9 9 9 9 9 9 9 9
12 12 12 12 12 12 12 12 12 12 12 12 12 11 11 11 11 11 11 11 10 10 10 10 10 10 10 10 10 10 10 10 10 10 10 10 10 10 11 11 10 10 10 10 10 10 10 10 10 10 10 10 10 10 10 10 10 10 10 10 9 9 9 9 9 9 9 9 9
12 12 12 12 12 12 12 12 11 11 11 11 11 11 11 11 10 10 10 10 10 10 10 10 10 10 10 10 10 10 10 10 10 10 10 10 10 10 10 10 10 10 10 10 10 10 10 10 10 10 10 10 10 10 10 10 10 10 9 9 9 9 9 9 9 9 9 9 9
12 12 11 11 11 11 11 11 11 11 11 11 11 11 10 10 10 10 10 10 9 9 9 9 9 9 9 9 9 10 10 10 10 10 10 10 10 10 10 10 10 10 10 10 10 10 10 10 10 10 10 10 10 10 10 10 9 9 9 9 9 9 9 9 9 9 9 9 9
11 11 11 11 11 11 11 11 11 10 10 10 10 10 10 10 10 9 9 9 9 9 9 9 9 9 9 9 9 9 9 9 9 10 10 10 10 10 10 10 10 10 10 10 10 10 10 10 10 10 10 10 9 9 9 9 9 9 9 9 9 9 9 9 9 9 9 9 9
11 11 11 11 11 11 10 10 10 10 10 10 10 10 10 9 9 9 9 9 9 9 9 9 9 9 9 9 9 9 9 9 9 9 9 9 9 9 9 9 9 10 10 10 9 9 9 9 9 9 9 9 9 9 9 9 9 9 9 9 9 9 9 9 9 9 9 9 9
11 10 10 10 10 10 10 10 10 9 9 9 9 9 9 9 9 9 9 9 8 8 8 8 8 8 8 8 9 9 9 9 9 9 9 9 9 9 9 9 9 9 9 9 9 9 9 9 9 9 9 9 9 9 9 9 9 9 9 9 9 9 9 9 9 9 9 9 8
10 10 10 10 10 10 9 9 9 9 9 9 9 9 9 9 9 8 8 8 8 8 8 8 8 8 8 8 8 8 8 8 8 8 8 8 8 9 9 9 9 9 9 9 9 9 9 9 9 9 9 9 9 9 9 9 9 9 9 9 9 9 9 9 9 8 8 8 8
10 10 10 10 9 9 9 9 9 9 9 9 9 8 8 8 8 8 8 8 8 8 7 7 7 7 7 7 8 8 8 8 8 8 8 8 8 8 8 8 8 8 8 8 8 8 8 8 8 8 8 8 8 8 8 8 8 8 8 8 8 8 8 8 8 8 8 7 7
10 10 9 9 9 9 9 9 9 8 8 8 8 8 8 8 8 8 8 7 7 7 7 7 7 7 7 7 7 7 7 7 7 7 7 8 8 8 8 8 8 8 8 8 8 8 8 8 8 8 8 8 8 8 8 8 8 8 8 8 8 8 8 8 7 7 7 7 7
10 9 9 9 9 9 8 8 8 8 8 8 8 8 8 8 7 7 7 7 6 6 6 6 6 6 6 6 7 7 7 7 7 7 7 7 7 7 7 8 8 8 8 8 8 8 8 8 8 8 8 8 8 8 8 8 8 8 8 8 7 7 7 7 7 6 6 6 6
9 9 9 9 9 8 8 8 8 8 8 8 8 7 7 7 7 6 6 6 6 6 6 6 6 6 6 6 6 6 6 6 7 7 7 7 7 7 7 7 7 7 8 8 8 8 7 7 7 7 7 7 7 7 7 7 7 7 7 7 7 7 6 6 6 6 6 6 6
9 9 9 8 8 8 8 8 8 8 7 7 7 7 7 7 6 6 5 5 5 5 5 5 5 5 5 6 6 6 6 6 6 6 7 7 7 7 7 7 7 7 7 7 7 7 7 7 7 7 7 7 7 7 7 7 7 6 6 6 6 6 6 6 6 5 5 5 5
9 9 8 8 8 8 8 7 7 7 7 7 7 7 6 6 6 5 5 5 4 4 4 5 5 5 5 5 5 6 6 6 6 6 6 7 7 7 7 7 7 7 7 7 7 7 7 7 7 7 7 7 6 6 6 6 6 6 6 6 5 5 5 5 5 5 5 5 5
8 8 8 8 8 7 7 7 7 7 6 6 6 6 6 6 5 5 4 4 4 4 4 4 4 4 5 5 5 5 6 6 6 6 6 7 7 7 7 7 7 7 7 6 6 6 7 7 7 6 6 6 6 6 6 6 5 5 5 5 5 5 5 5 5 5 5 5 4
8 8 8 8 7 7 7 7 6 6 6 6 6 6 5 5 5 4 4 4 4 4 4 4 4 4 4 5 5 5 6 6 6 6 6 6 7 7 7 7 7 6 6 6 6 6 6 6 6 6 6 6 5 5 5 5 5 5 5 5 5 5 4 4 4 4 4 4 4
8 8 7 7 7 7 7 6 6 6 6 6 5 5 5 5 4 4 4 3 3 3 3 3 4 4 4 5 5 5 5 6 6 6 6 6 6 6 6 6 6 6 6 6 6 6 6 6 6 5 5 5 5 5 5 5 5 4 4 4 4 4 4 4 4 4 4 4 4
7 7 7 7 7 6 6 6 6 5 5 5 5 5 5 4 4 4 3 3 3 3 3 3 3 4 4 4 5 5 5 5 5 6 6 6 6 6 6 6 6 6 6 6 6 6 5 5 5 5 5 5 5 4 4 4 4 4 4 4 4 4 4 4 4 3 3 3 3
7 7 7 7 6 6 6 6 5 5 5 5 5 5 4 4 4 3 3 3 2 2 2 3 3 4 4 4 4 4 5 5 5 5 5 6 6 6 6 5 5 5 5 5 5 5 5 5 5 5 5 4 4 4 4 4 4 4 4 4 4 3 3 3 3 3 3 3 3
7 7 7 6 6 6 6 5 5 5 5 4 4 4 4 4 3 3 2 2 2 2 2 2 3 3 4 4 4 4 4 4 5 5 5 5 5 5 5 5 5 5 5 5 5 5 5 5 4 4 4 4 4 4 4 4 4 3 3 3 3 3 3 3 3 3 3 3 3
7 6 6 6 6 6 5 5 5 5 4 4 4 4 4 3 2 2 2 2 2 2 2 2 2 3 3 3 3 4 4 4 4 4 4 4 5 5 5 5 5 5 5 5 5 4 4 4 4 4 4 4 3 3 3 3 3 3 3 3 3 3 3 3 3 3 3 3 3
6 6 6 6 6 5 5 5 5 5 4 4 4 3 3 2 2 2 2 1 1 1 1 1 2 2 2 2 3 3 3 3 4 4 4 4 4 4 4 4 4 4 4 4 4 4 4 4 4 3 3 3 3 3 3 3 3 3 3 3 3 3 3 3 3 3 3 3 3
6 6 6 5 5 5 5 5 5 4 4 4 4 3 2 2 2 2 1 1 1 1 1 1 1 1 2 2 2 2 3 3 3 3 4 4 4 4 4 4 4 4 4 4 4 3 3 3 3 3 3 3 3 3 3 3 3 2 2 2 2 2 2 2 2 3 3 3 3
6 6 5 5 5 5 5 5 4 4 4 3 3 2 1 1 1 1 1 1 1 0 0 0 1 1 1 1 2 2 2 2 3 3 3 3 3 4 4 4 4 4 4 3 3 3 3 3 3 3 3 3 3 2 2 2 2 2 2 2 2 3 3 3 2 2 2 2 2
6 5 5 5 5 5 4 4 4 3 3 2 2 1 1 1 1 1 0 0 0 -0 -0 -0 0 0 1 1 1 2 2 2 2 3 3 3 3 3 3 3 3 3 3 3 3 3 3 3 2 2 2 2 2 2 2 2 2 2 2 3 3 3 2 2 2 2 2 2 2
5 5 5 5 5 4 4 3 3 3 2 1 1 0 0 0 0 0 0 0 -0 -1 -1 -1 -0 0 1 1 1 1 2 2 2 2 2 3 3 3 3 3 3 3 3 2 2 2 2 2 2 2 2 2 2 2 2 2 2 2 2 2 2 2 2 2 2 2 2 2 2
5 5 5 4 4 4 3 3 2 2 1 1 0 0 0 0 0 0 -0 -0 -1 -1 -1 -1 0 1 1 1 1 1 1 1 2 2 2 2 2 2 2 2 2 2 2 2 2 2 2 2 2 2 2 2 2 2 2 2 2 2 2 2 2 2 2 2 2 2 2 2 1
5 5 4 4 4 3 3 2 2 1 1 0 -0 -0 -0 0 0 -0 -0 -1 -1 -1 -1 -0 0 0 0 0 0 0 1 1 1 2 2 2 2 2 2 2 2 2 2 2 2 2 2 2 2 2 2 2 2 2 2 2 2 2 2 2 2 2 2 2 2 2 1 1 1
4 4 4 4 3 3 2 2 1 1 0 -0 -0 -0 -0 -0 -0 -0 -0 -1 -1 -1 -0 -0 -0 -0 -0 -0 -0 0 0 0 1 1 1 1 2 2 2 2 1 1 1 2 2 2 2 2 2 2 2 2 2 2 2 2 2 2 2 2 2 2 2 1 1 1 1 1 1
Height
1519 1520 1521 1521 1522 1522 1523 1523 1524 1525 1525 1525 1526 1526 1526 1527 1527 1527 1527 1527 1527 1527 1527 1528 1528 1527 1527 1527 1528 1528 1528 1528 1528 1528 1529 1529 1529 1529 1529 1530 1530 1530 1531 1531 1531 1531 1531 1531 1531 1531 1531 1531 1531 1531 1531 1531 1532 1532 1532 1532 1532 1533 1533 1534 1534 1534 1534 1534 1534
1517 1518 1519 1519 1520 1521 1521 1521 1522 1523 1523 1523 1524 1524 1525 1525 1525 1525 1525 1525 1525 1526 1526 1526 1526 1526 1526 1526 1526 1526 1526 1526 1526 1526 1527 1527 1527 1527 1527 1528 1528 1528 1528 1529 1529 1529 1529 1529 1529 1529 1529 1529 1529 1529 1530 1530 1530 1530 1530 1530 1531 1531 1532 1532 1532 1532 1532 1532 1532
1515 1516 1517 1517 1518 1519 1519 1520 1520 1521 1521 1521 1522 1522 1523 1523 1523 1523 1523 1523 1523 1524 1524 1524 1524 1524 1524 1524 1524 1524 1524 1525 1525 1525 1525 1525 1525 1526 1526 1526 1526 1526 1526 1526 1527 1527 1527 1527 1527 1527 1527 1527 1528 1528 1528 1528 1528 1528 1529 1529 1530 1530 1531 1531 1531 1531 1531 1531 1531
1513 1514 1515 1516 1516 1517 1517 1518 1518 1519 1519 1520 1520 1520 1521 1521 1521 1521 1521 1521 1522 1522 1522 1522 1522 1522 1522 1522 1523 1523 1523 1523 1523 1523 1523 1523 1524 1524 1524 1524 1524 1524 1525 1525 1525 1525 1525 1525 1526 1526 1526 1526 1526 1526 1526 1526 1526 1527 1527 1528 1528 1529 1529 1530 1530 1530 1529 1529 1529
1511 1512 1513 1514 1514 1515 1515 1516 1516 1517 1517 1518 1518 1518 1519 1519 1519 1520 1520 1520 1520 1520 1521 1521 1521 1521 1521 1521 1521 1521 1521 1521 1521 1521 1521 1522 1522 1522 1522 1522 1523 1523 1523 1523 1523 1523 1524 1524 1524 1524 1524 1524 1524 1524 1524 1525 1525 1526 1526 1527 1527 1527 1528 1528 1528 1528 1528 1528 1528
1510 1511 1511 1512 1512 1513 1514 1514 1515 1515 1516 1516 1516 1517 1517 1517 1518 1518 1518 1518 1519 1519 1519 1519 1519 1519 1519 1520 1520 1520 1520 1520 1520 1520 1520 1520 1520 1521 1521 1521 1521 1521 1521 1522 1522 1522 1522 1522 1522 1522 1522 1522 1523 1523 1523 1524 1524 1525 1525 1526 1526 1526 1526 1527 1527 1527 1526 1526 1526
1508 1509 1510 1510 1511 1511 1512 1513 1513 1514 1514 1515 1515 1515 1516 1516 1516 1516 1517 1517 1517 1517 1518 1518 1518 1518 1518 1518 1518 1518 1518 1518 1518 1518 1518 1519 1519 1519 1519 1519 1520 1520 1520 1520 1521 1521 1521 1521 1521 1521 1521 1521 1521 1522 1522 1523 1523 1524 1524 1525 1525 1525 1525 1525 1525 1525 1525 1525 1525
1507 1508 1508 1509 1510 1510 1511 1511 1512 1512 1513 1513 1513 1514 1514 1515 1515 1515 1515 1516 1516 1516 1516 1516 1516 1516 1516 1516 1516 1516 1517 1517 1517 1517 1517 1517 1517 1518 1518 1518 1518 1518 1519 1519 1519 1519 1519 1519 1519 1520 1520 1520 1520 1521 1521 1522 1522 1523 1523 1523 1523 1523 1523 1523 1523 1523 1523 1523 1523
1506 1507 1507 1508 1508 1509 1510 1510 1511 1511 1511 1512 1512 1512 1513 1513 1514 1514 1514 1514 1515 1515 1515 1515 1515 1515 1515 1515 1515 1515 1516 1516 1516 1516 1516 1516 1516 1516 1516 1517 1517 1517 1517 1517 1517 1517 1518 1518 1518 1518 1518 1519 1519 1520 1520 1521 1521 1521 1521 1522 1522 1522 1522 1522 1522 1522 1522 1522 1522
1505 1506 1506 1507 1507 1508 1508 1509 1509 1510 1510 1511 1511 1511 1512 1512 1512 1512 1513 1513 1513 1513 1514 1514 1514 1514 1514 1514 1514 1514 1514 1514 1514 1514 1515 1515 1515 1515 1515 1515 1516 1516 1516 1516 1516 1516 1516 1516 1517 1517 1517 1517 1518 1518 1519 1519 1520 1520 1520 1520 1520 1520 1520 1520 1521 1521 1521 1521 1521
1504 1505 1506 1506 1506 1507 1507 1508 1508 1508 1509 1509 1510 1510 1511 1511 1511 1511 1511 1512 1512 1512 1512 1512 1512 1512 1512 1513 1513 1513 1513 1513 1513 1513 1513 1513 1514 1514 1514 1514 1514 1514 1514 1514 1515 1515 1515 1515 1516 1516 1516 1516 1516 1517 1517 1518 1518 1518 1518 1519 1519 1519 1519 1519 1519 1519 1519 1519 1520
1503 1504 1504 1505 1505 1506 1506 1506 1507 1507 1508 1508 1508 1509 1509 1509 1510 1510 1510 1511 1511 1511 1511 1511 1511 1511 1511 1512 1512 1512 1512 1512 1512 1512 1512 1512 1512 1513 1513 1513 1513 1513 1513 1513 1513 1513 1514 1514 1514 1515 1515 1515 1515 1516 1516 1516 1516 1517 1517 1517 1517 1518 1517 1517 1517 1517 1517 1518 1518
1502 1503 1503 1504 1504 1505 1505 1505 1506 1506 1506 1507 1507 1507 1508 1508 1508 1509 1509 1509 1509 1509 1510 1510 1510 1510 1511 1511 1511 1511 1511 1511 1511 1511 1511 1511 1511 1511 1512 1512 1512 1512 1512 1512 1512 1512 1512 1513 1513 1513 1514 1514 1514 1514 1514 1515 1515 1515 1515 1516 1516 1516 1516 1516 1516 1516 1516 1517 1517
1501 1502 1502 1502 1503 1503 1504 1504 1504 1505 1505 1505 1506 1506 1506 1506 1507 1507 1507 1508 1508 1508 1508 1509 1509 1509 1510 1510 1510 1510 1510 1510 1510 1510 1510 1510 1510 1510 1511 1511 1511 1511 1511 1511 1511 1511 1511 1511 1512 1512 1512 1512 1513 1513 1513 1513 1514 1514 1514 1514 1514 1514 1514 1515 1515 1515 1515 1516 1516
1500 1501 1501 1501 1502 1502 1502 1503 1503 1504 1504 1504 1504 1505 1505 1505 1506 1506 1506 1506 1507 1507 1507 1507 1508 1508 1508 1508 1509 1509 1509 1509 1509 1509 1509 1509 1509 1509 1509 1510 1510 1510 1510 1510 1510 1510 1510 1510 1511 1511 1511 1511 1511 1511 1512 1512 1512 1512 1512 1513 1513 1513 1513 1513 1514 1514 1514 1514 1514
1499 1499 1500 1500 1501 1501 1501 1502 1502 1502 1503 1503 1503 1503 1504 1504 1504 1505 1505 1505 1505 1506 1506 1506 1506 1507 1507 1507 1507 1508 1508 1508 1508 1508 1508 1508 1508 1508 1508 1508 1508 1508 1509 1509 1509 1509 1509 1509 1509 1510 1510 1510 1510 1510 1510 1511 1511 1511 1511 1511 1511 1512 1512 1512 1512 1512 1513 1513 1513
1498 1498 1499 1499 1499 1500 1500 1501 1501 1501 1501 1501 1502 1502 1502 1503 1503 1503 1504 1504 1504 1504 1504 1505 1505 1506 1506 1506 1506 1506 1506 1506 1506 1506 1506 1506 1507 1507 1507 1507 1507 1507 1507 1507 1507 1508 1508 1508 1508 1508 1508 1508 1509 1509 1509 1509 1510 1510 1510 1510 1510 1510 1511 1511 1511 1511 1511 1511 1511
1496 1497 1497 1498 1498 1499 1499 1499 1500 1500 1500 1500 1501 1501 1501 1501 1502 1502 1502 1502 1502 1503 1503 1503 1504 1504 1504 1504 1505 1505 1505 1505 1505 1505 1505 1506 1506 1506 1506 1506 1506 1506 1506 1506 1506 1506 1506 1507 1507 1507 1507 1507 1507 1507 1508 1508 1508 1508 1508 1509 1509 1509 1509 1509 1509 1510 1510 1510 1510
1496 1496 1496 1497 1497 1497 1498 1498 1498 1499 1499 1499 1499 1500 1500 1500 1500 1501 1501 1501 1501 1501 1501 1502 1502 1502 1503 1503 1503 1503 1503 1504 1504 1504 1504 1504 1504 1505 1505 1505 1505 1505 1505 1505 1505 1505 1505 1505 1505 1506 1506 1506 1506 1506 1506 1506 1506 1506 1507 1507 1507 1507 1507 1507 1508 1508 1508 1508 1508
1495 1495 1495 1496 1496 1496 1496 1497 1497 1497 1498 1498 1498 1498 1498 1499 1499 1499 1499 1499 1500 1500 1500 1500 1501 1501 1501 1501 1501 1502 1502 1502 1502 1502 1503 1503 1503 1503 1503 1503 1503 1503 1503 1504 1504 1504 1504 1504 1504 1504 1504 1504 1504 1504 1504 1505 1505 1505 1505 1505 1506 1506 1506 1506 1506 1506 1506 1506 1507
1493 1494 1494 1494 1495 1495 1495 1496 1496 1496 1496 1496 1496 1497 1497 1497 1497 1497 1498 1498 1498 1498 1498 1498 1499 1499 1499 1500 1500 1500 1501 1501 1501 1501 1501 1501 1501 1501 1502 1502 1502 1502 1502 1502 1502 1502 1502 1502 1502 1502 1502 1502 1502 1502 1503 1503 1503 1503 1503 1504 1504 1504 1504 1504 1504 1505 1505 1505 1505
1492 1492 1493 1493 1493 1494 1494 1494 1495 1495 1495 1495 1495 1495 1495 1495 1496 1496 1496 1496 1496 1496 1496 1497 1497 1497 1497 1498 1498 1499 1499 1499 1499 1499 1500 1500 1500 1500 1500 1500 1501 1501 1500 1500 1500 1500 1500 1500 1501 1501 1501 1501 1501 1501 1501 1501 1501 1501 1502 1502 1502 1502 1502 1502 1503 1503 1503 1504 1504
1491 1491 1491 1492 1492 1492 1493 1493 1493 1493 1493 1493 1493 1493 1493 1494 1494 1494 1494 1494 1494 1494 1495 1495 1495 1495 1496 1496 1496 1497 1497 1497 1497 1498 1498 1498 1498 1498 1498 1499 1499 1499 1499 1499 1499 1499 1499 1499 1499 1499 1499 1499 1499 1499 1499 1500 1500 1500 1500 1500 1501 1501 1501 1501 1501 1502 1502 1503 1503
1490 1490 1491 1491 1491 1491 1491 1492 1492 1492 1492 1491 1491 1491 1491 1491 1492 1492 1492 1492 1492 1492 1493 1493 1493 1493 1494 1494 1495 1495 1495 1496 1496 1496 1496 1496 1496 1496 1497 1497 1497 1497 1497 1497 1497 1497 1497 1497 1497 1497 1497 1497 1497 1497 1498 1498 1498 1498 1499 1499 1499 1500 1500 1500 1501 1501 1501 1502 1502
1489 1489 1489 1490 1490 1490 1490 1490 1490 1490 1490 1490 1490 1490 1490 1490 1490 1490 1490 1490 1490 1490 1491 1491 1491 1491 1492 1492 1492 1493 1493 1494 1494 1494 1494 1494 1495 1495 1495 1495 1495 1495 1495 1496 1496 1496 1495 1496 1496 1496 1496 1496 1496 1496 1496 1497 1497 1497 1497 1498 1498 1498 1499 1499 1500 1500 1501 1501 1501
1487 1487 1488 1488 1488 1489 1489 1489 1489 1488 1488 1488 1488 1487 1487 1487 1487 1488 1488 1488 1488 1488 1488 1489 1489 1490 1490 1490 1491 1491 1491 1492 1492 1492 1492 1492 1493 1493 1493 1493 1493 1494 1494 1494 1494 1494 1494 1494 1494 1494 1494 1494 1495 1495 1495 1496 1496 1496 1496 1497 1497 1497 1498 1498 1499 1499 1500 1500 1501
1486 1486 1486 1486 1487 1487 1487 1487 1487 1487 1486 1486 1486 1486 1485 1486 1486 1486 1486 1486 1486 1486 1486 1487 1487 1488 1488 1488 1489 1489 1490 1490 1490 1491 1491 1491 1491 1491 1491 1491 1492 1492 1492 1492 1492 1492 1492 1492 1493 1493 1493 1493 1494 1494 1494 1495 1495 1495 1496 1496 1496 1497 1497 1498 1498 1498 1499 1499 1500
1484 1485 1485 1485 1485 1486 1486 1486 1485 1485 1485 1484 1484 1484 1483 1483 1483 1483 1483 1483 1483 1483 1484 1485 1485 1486 1486 1487 1487 1487 1488 1488 1488 1489 1489 1489 1489 1489 1490 1490 1490 1491 1491 1491 1491 1491 1491 1491 1491 1492 1492 1492 1493 1493 1493 1494 1494 1495 1495 1495 1496 1496 1496 1497 1497 1498 1498 1498 1499
1483 1483 1483 1483 1484 1484 1484 1484 1484 1483 1483 1482 1482 1482 1482 1481 1481 1481 1481 1481 1481 1481 1482 1482 1483 1484 1484 1485 1485 1486 1486 1486 1486 1487 1487 1487 1488 1488 1488 1489 1489 1489 1490 1490 1490 1490 1490 1491 1491 1491 1491 1492 1492 1492 1493 1493 1494 1494 1494 1495 1495 1496 1496 1496 1497 1497 1497 1498 1498
1481 1481 1481 1482 1482 1482 1482 1482 1482 1481 1481 1481 1480 1480 1480 1480 1480 1479 1479 1479 1479 1480 1480 1481 1481 1482 1483 1483 1484 1484 1484 1485 1485 1485 1486 1486 1486 1486 1487 1487 1488 1488 1488 1489 1489 1489 1490 1490 1490 1490 1491 1491 1491 1492 1492 1493 1493 1493 1494 1494 1495 1495 1495 1496 1496 1496 1497 1497 1498
1480 1480 1480 1480 1480 1480 1480 1480 1480 1479 1479 1479 1478 1478 1478 1478 1478 1478 1478 1478 1478 1478 1479 1479 1480 1480 1481 1481 1482 1482 1483 1483 1483 1484 1484 1484 1485 1485 1486 1486 1487 1487 1487 1488 1488 1488 1489 1489 1489 1490 1490 1491 1491 1491 1492 1492 1492 1493 1493 1494 1494 1495 1495 1495 1496 1496 1496 1497 1497
1478 1478 1478 1479 1479 1479 1478 1478 1478 1477 1477 1477 1477 1476 1476 1476 1476 1476 1476 1476 1476 1477 1477 1478 1478 1479 1479 1480 1480 1481 1481 1481 1482 1482 1483 1483 1484 1484 1485 1485 1486 1486 1486 1487 1487 1488 1488 1488 1489 1489 1490 1490 1491 1491 1491 1491 1492 1492 1493 1493 1494 1494 1495 1495 1495 1496 1496 1496 1497
1476 1477 1477 1477 1477 1477 1477 1476 1476 1476 1476 1476 1475 1475 1475 1475 1475 1475 1475 1475 1476 1476 1476 1476 1477 1477 1478 1478 1479 1479 1480 1480 1481 1481 1481 1482 1483 1483 1484 1484 1485 1485 1486 1486 1486 1487 1487 1488 1488 1489 1489 1490 1490 1490 1491 1491 1492 1492 1493 1493 1493 1494 1494 1495 1495 1495 1496 1496 1496
1475 1475 1475 1475 1475 1475 1475 1475 1474 1474 1474 1474 1474 1474 1474 1474 1474 1474 1474 1474 1474 1475 1475 1476 1476 1476 1477 1477 1478 1478 1479 1479 1480 1480 1481 1481 1482 1482 1483 1483 1484 1485 1485 1486 1486 1486 1487 1487 1488 1488 1489 1489 1490 1490 1491 1491 1491 1492 1492 1493 1493 1494 1494 1494 1495 1495 1495 1496 1496
1473 1474 1474 1474 1474 1474 1473 1473 1473 1472 1472 1472 1472 1472 1472 1473 1473 1473 1473 1473 1473 1474 1474 1475 1475 1476 1476 1476 1477 1477 1478 1478 1479 1479 1480 1480 1481 1481 1482 1483 1483 1484 1484 1485 1485 1486 1486 1487 1487 1488 1488 1489 1489 1490 1490 1491 1491 1492 1492 1492 1493 1493 1494 1494 1494 1494 1495 1495 1495
1472 1472 1472 1472 1472 1472 1471 1471 1471 1471 1471 1471 1471 1471 1471 1471 1472 1472 1472 1472 1472 1473 1473 1474 1474 1475 1475 1476 1476 1476 1477 1477 1478 1478 1479 1480 1480 1481 1481 1482 1482 1483 1484 1484 1485 1485 1486 1486 1487 1487 1488 1488 1489 1490 1490 1491 1491 1491 1492 1492 1492 1493 1493 1493 1493 1494 1494 1494 1494
1470 1471 1471 1471 1471 1470 1470 1470 1469 1469 1470 1470 1470 1470 1471 1471 1471 1471 1471 1471 1472 1472 1472 1473 1474 1474 1474 1475 1475 1476 1476 1477 1477 1478 1478 1479 1480 1480 1481 1481 1482 1482 1483 1484 1484 1485 1485 1486 1486 1487 1488 1488 1489 1489 1490 1490 1491 1491 1491 1491 1492 1492 1492 1492 1493 1493 1493 1493 1494
1469 1469 1469 1469 1469 1469 1468 1468 1468 1468 1468 1469 1469 1469 1469 1470 1470 1470 1470 1471 1471 1471 1472 1472 1473 1473 1473 1474 1475 1475 1476 1476 1477 1477 1478 1478 1479 1479 1480 1481 1481 1482 1483 1483 1484 1484 1485 1486 1486 1487 1487 1488 1488 1489 1489 1490 1490 1490 1491 1491 1491 1491 1492 1492 1492 1492 1492 1493 1493
1467 1467 1468 1468 1467 1467 1467 1466 1466 1467 1467 1468 1468 1468 1469 1469 1469 1469 1470 1470 1471 1471 1471 1471 1472 1472 1473 1474 1475 1475 1476 1476 1476 1477 1477 1478 1478 1479 1480 1480 1481 1481 1482 1483 1483 1484 1485 1485 1486 1486 1487 1487 1488 1488 1489 1489 1489 1490 1490 1490 1491 1491 1491 1491 1491 1492 1492 1492 1492
1466 1466 1466 1466 1466 1465 1465 1465 1465 1466 1466 1467 1467 1467 1468 1468 1468 1468 1469 1469 1470 1470 1470 1471 1471 1472 1473 1474 1474 1475 1475 1475 1476 1476 1477 1477 1478 1479 1479 1480 1481 1481 1482 1483 1483 1484 1485 1485 1486 1486 1487 1487 1487 1488 1488 1488 1489 1489 1489 1490 1490 1490 1490 1491 1491 1491 1491 1492 1492
1464 1465 1465 1465 1464 1464 1464 1464 1464 1465 1465 1466 1466 1466 1467 1467 1467 1468 1468 1469 1469 1469 1470 1471 1471 1472 1473 1473 1474 1474 1474 1475 1476 1476 1476 1477 1478 1478 1479 1480 1481 1481 1482 1482 1483 1484 1484 1485 1485 1486 1486 1487 1487 1487 1488 1488 1488 1488 1489 1489 1489 1489 1490 1490 1490 1491 1491 1491 1491
Wind_Speed
27 27 27 27 27 27 27 27 26 26 26 26 26 26 26 26 27 27 28 28 28 28 28 27 27 27 27 27 26 26 26 26 25 25 25 25 25 25 26 26 26 26 26 27 27 28 28 28 27 28 29 29 29 30 30 30 28 27 25 22 21 20 19 18 18 20 21 23 24
27 27 27 27 26 26 26 26 25 25 25 25 26 26 26 27 27 28 28 28 28 27 27 26 26 26 25 25 24 24 24 24 24 23 23 23 23 24 24 24 24 24 25 25 26 27 27 28 29 29 30 30 29 29 29 28 27 25 23 21 20 19 18 18 18 20 22 24 24
27 27 26 26 25 25 25 25 25 25 25 26 26 26 27 27 27 27 27 27 26 25 25 24 24 24 24 23 23 23 22 22 22 22 22 22 22 22 22 22 22 23 23 23 24 25 25 26 26 27 27 27 27 27 26 26 25 23 22 20 20 19 18 18 19 22 24 24 23
26 26 25 25 25 25 25 25 25 25 26 26 26 26 26 26 25 25 25 25 24 24 23 23 23 23 22 22 22 21 21 21 21 21 21 21 21 21 21 21 22 22 22 22 23 23 23 23 23 24 24 24 24 24 24 23 22 21 20 19 19 18 18 19 20 22 23 23 21
25 25 25 25 25 25 25 25 25 25 25 25 24 24 24 24 24 23 23 23 22 22 22 22 22 22 21 21 21 21 21 21 21 21 21 21 21 21 21 21 21 21 21 22 22 22 22 22 22 22 22 22 22 22 22 21 20 19 18 17 17 17 18 18 20 22 23 23 21
25 24 24 24 24 24 24 24 24 23 23 23 23 22 22 22 22 22 22 22 22 21 21 21 21 21 21 21 21 21 21 21 21 21 21 21 21 21 21 21 21 21 21 21 21 21 21 21 20 20 20 20 20 20 19 18 17 16 15 16 16 17 18 20 22 23 23 22 20
24 24 24 23 23 23 23 22 22 22 22 22 22 22 22 22 22 21 21 21 21 21 21 21 21 21 21 21 21 21 21 21 21 21 21 21 21 21 21 21 21 21 21 21 21 20 20 20 19 18 18 17 17 17 16 16 15 15 15 17 18 19 21 22 22 22 22 20 18
23 23 22 22 22 22 21 21 21 21 21 21 21 22 22 22 22 21 21 21 21 21 21 21 21 21 21 21 21 21 21 21 21 21 21 21 21 20 21 21 21 20 20 20 20 19 19 18 18 17 17 16 15 15 16 16 16 17 18 20 20 21 21 20 20 19 19 18 16
22 21 21 21 21 21 21 21 21 21 21 21 22 22 22 21 21 21 21 21 21 21 20 20 20 21 21 21 21 21 20 20 20 20 20 20 20 20 20 20 20 20 20 19 19 19 18 18 17 17 16 16 16 16 16 17 18 19 20 20 20 20 19 18 17 17 17 17 15
21 21 20 20 20 20 20 20 20 20 21 21 21 21 21 21 21 21 21 20 20 20 20 20 20 20 20 20 20 20 20 20 20 20 20 20 20 20 20 20 20 20 20 19 19 18 18 17 17 17 17 17 17 17 17 17 18 18 19 19 18 17 16 16 17 17 17 16 16
20 20 20 19 19 19 19 19 20 20 20 20 20 20 20 20 20 20 20 20 20 19 19 19 19 19 19 19 19 19 19 19 19 19 20 20 20 20 20 20 20 19 19 19 19 18 17 17 17 17 18 18 18 18 18 18 18 18 17 17 16 16 16 17 17 16 15 15 16
19 19 19 19 19 19 19 19 19 19 19 20 20 20 20 20 20 20 20 19 19 19 19 19 19 18 18 18 19 18 18 18 19 19 19 19 19 19 19 19 19 19 19 19 18 18 17 17 17 18 18 18 18 18 18 18 19 18 18 17 16 16 16 16 15 15 14 15 15
18 18 18 18 18 18 19 19 19 19 19 20 20 20 19 19 19 19 19 19 19 18 18 18 18 18 18 18 18 18 18 18 18 19 19 19 18 18 18 18 18 18 18 18 18 17 17 17 17 18 19 19 18 18 19 19 20 19 19 18 17 16 16 15 15 15 15 16 16
18 18 18 18 18 18 19 19 19 19 19 20 20 19 19 19 19 19 19 19 18 18 18 18 18 18 18 18 18 18 18 18 18 18 18 18 18 17 17 17 17 16 16 17 17 17 17 17 17 18 18 19 19 19 19 19 20 19 19 18 17 16 16 16 16 16 17 17 17
17 17 18 18 18 18 19 19 19 19 19 20 20 19 19 19 19 19 19 19 19 19 19 19 19 19 18 18 18 18 18 18 18 18 18 18 17 17 17 16 16 16 16 16 16 16 16 16 17 17 18 18 18 18 18 18 18 17 17 16 16 16 17 17 18 18 19 18 18
17 17 17 18 18 18 18 18 19 19 19 19 20 20 19 20 19 19 19 19 19 20 20 20 19 19 19 19 19 19 19 19 19 19 19 18 18 18 18 17 17 17 16 16 16 16 16 17 17 17 17 18 18 17 17 17 17 16 16 16 16 17 18 19 19 20 20 20 20
16 17 17 17 18 18 18 18 18 19 19 19 20 20 20 20 20 20 20 20 20 20 20 20 20 20 20 20 20 20 20 20 20 20 20 19 19 19 19 18 18 18 18 18 18 18 18 18 18 18 18 18 18 18 18 18 17 17 17 18 18 19 19 20 20 21 21 21 21
16 16 17 17 18 18 18 18 18 18 19 19 20 20 20 20 20 20 20 21 21 21 21 21 21 21 21 21 21 21 21 21 21 21 21 20 20 20 20 20 19 19 19 19 19 19 19 19 19 20 20 19 19 19 19 19 19 19 19 20 20 20 21 21 21 21 22 22 22
15 16 16 17 17 17 18 18 18 18 19 19 20 20 20 20 20 21 21 21 21 22 22 22 22 22 22 22 22 22 22 22 22 22 21 21 21 21 21 21 21 21 21 21 21 21 21 21 21 21 21 21 21 21 21 21 21 21 21 21 21 21 21 22 22 22 22 21 21
15 15 16 16 17 17 17 17 18 18 18 19 20 20 20 21 21 21 21 22 22 22 22 22 22 22 22 22 22 22 22 22 22 22 22 22 22 22 22 22 22 22 22 22 22 22 22 22 22 22 22 21 21 22 22 22 22 22 22 22 22 22 21 21 21 21 21 20 20
15 15 16 16 17 17 17 17 18 18 19 19 20 21 21 22 22 22 22 22 22 22 22 22 22 23 23 23 23 22 22 22 23 23 23 23 22 22 22 22 22 22 22 22 22 22 22 22 22 22 22 22 22 22 22 22 22 22 22 21 21 21 21 20 20 19 19 18 18
14 15 15 16 16 16 17 17 18 18 19 20 21 21 22 23 23 23 23 23 23 23 23 23 23 23 23 23 23 23 23 23 23 23 23 23 23 23 23 22 22 22 22 21 21 21 21 21 22 22 22 22 22 22 22 22 21 21 21 20 20 19 19 18 18 17 17 16 16
14 14 15 15 16 16 16 17 18 18 19 20 21 22 23 23 24 24 24 24 24 24 24 24 24 24 24 24 23 23 23 23 23 23 23 23 23 22 22 22 21 21 21 21 21 21 21 21 21 21 21 21 21 21 21 20 20 19 19 18 18 17 17 16 16 15 15 15 15
13 14 15 15 16 16 17 17 18 19 20 21 22 22 23 24 24 24 25 25 25 25 25 25 25 25 24 24 24 24 23 23 23 23 23 23 22 22 22 21 21 21 21 21 20 20 20 20 20 20 20 20 19 19 19 18 18 17 16 16 15 15 15 14 14 14 14 14 14
13 14 15 15 16 16 17 18 18 19 20 21 22 22 23 24 24 25 25 26 26 26 26 26 25 25 25 25 24 24 23 23 23 23 22 22 22 21 21 21 21 20 20 19 19 19 18 19 19 18 18 18 17 17 16 16 15 15 14 14 14 13 13 13 13 13 13 13 13
14 14 15 16 16 17 17 18 19 19 20 21 22 23 23 23 24 24 25 26 27 27 27 26 26 26 25 25 24 24 23 23 22 22 22 21 21 21 21 20 20 19 18 18 17 17 17 17 17 17 16 16 15 14 14 14 14 13 13 13 13 13 13 13 13 13 13 12 12
15 15 16 16 17 17 18 18 19 20 21 21 22 22 22 23 23 23 24 26 27 27 27 27 26 26 25 25 24 23 23 22 22 22 22 21 21 21 20 19 18 17 16 16 16 16 16 15 15 14 14 13 13 13 12 12 12 12 12 12 12 12 12 12 12 12 11 11 10
16 16 16 17 17 18 18 19 19 20 21 21 22 22 22 21 22 22 23 24 26 26 27 26 26 26 25 24 23 23 23 22 22 22 21 21 21 20 19 18 16 15 15 14 14 14 14 13 13 12 12 12 12 12 12 12 12 12 12 12 12 12 11 11 11 11 10 10 9
17 17 17 17 18 18 19 19 19 20 21 21 21 21 20 20 20 21 22 23 24 25 25 25 25 25 24 23 23 23 23 22 22 21 21 20 19 18 17 16 15 14 14 13 13 12 12 11 11 11 11 11 11 11 11 11 11 11 11 11 11 11 11 10 10 10 9 9 9
18 18 18 18 19 19 20 20 20 20 21 21 21 20 19 19 19 19 20 21 22 22 23 23 23 23 23 23 23 23 22 22 21 20 19 18 17 16 15 14 13 13 13 12 12 11 10 10 10 10 10 10 10 10 10 10 10 11 11 10 10 10 10 9 9 9 9 8 8
19 19 19 19 20 20 21 21 21 21 21 21 21 20 18 17 17 17 18 19 20 20 21 21 21 22 22 22 22 21 21 20 19 18 17 16 15 14 14 13 13 12 12 11 11 10 10 9 9 9 9 9 9 9 10 10 10 10 10 10 9 9 9 9 9 8 8 8 8
19 20 20 20 20 21 21 21 21 21 21 21 20 19 17 16 16 16 17 17 18 19 19 19 20 20 20 20 20 20 19 18 17 16 16 15 14 14 13 13 12 12 11 11 10 10 9 9 9 9 9 9 9 9 9 9 9 9 9 9 9 9 9 9 8 8 8 8 7
20 20 20 20 21 21 22 22 22 21 21 20 19 18 17 16 16 16 16 17 17 18 18 18 18 18 18 18 18 17 17 16 16 15 15 14 14 13 13 12 12 12 11 11 10 10 9 9 9 9 9 9 9 9 9 9 9 9 9 9 9 8 8 8 8 8 8 7 7
21 21 21 21 21 22 22 22 22 21 20 20 19 17 17 16 16 16 16 16 17 17 17 17 17 16 16 16 15 15 15 15 15 14 14 13 13 13 13 12 12 11 11 10 10 10 9 9 8 8 8 8 9 9 9 9 9 9 9 9 8 8 8 8 7 7 7 7 7
21 21 21 21 22 22 23 22 22 21 20 19 18 17 16 16 16 15 15 15 16 16 16 16 15 15 15 14 14 14 14 14 14 13 13 13 13 13 12 12 12 11 11 10 10 9 9 9 8 8 9 9 9 9 9 9 9 9 9 8 8 8 8 7 7 7 7 7 7
22 21 21 22 23 23 23 22 21 20 19 18 17 16 16 16 15 15 14 15 15 15 15 15 14 14 14 14 14 14 13 13 13 13 13 13 13 12 12 12 12 11 11 10 10 10 9 9 9 9 9 9 9 9 9 9 9 9 8 8 8 8 7 7 7 7 7 7 7
22 22 22 22 23 23 22 21 20 19 18 17 16 15 15 15 15 14 14 14 14 14 14 14 14 15 15 14 13 13 13 12 12 13 13 13 13 12 12 12 12 11 11 10 10 10 10 10 10 10 10 10 10 9 9 9 8 8 8 7 7 7 7 7 7 7 7 7 7
22 22 22 23 23 22 21 20 19 18 17 16 15 15 15 15 14 14 13 13 13 14 14 15 16 16 15 14 13 12 12 12 12 12 13 13 13 12 12 12 12 11 11 11 11 11 10 10 10 10 10 10 9 9 8 8 8 8 7 7 7 7 7 7 7 7 7 7 7
23 23 23 23 22 21 20 19 18 17 16 15 14 14 14 14 14 13 13 13 14 14 15 16 16 15 14 12 11 11 11 12 12 12 13 13 13 12 12 12 12 11 11 11 11 11 11 11 10 10 10 9 9 9 8 8 8 8 7 7 7 7 7 7 7 7 7 7 7
23 23 23 22 22 20 19 18 17 16 15 14 14 14 14 14 13 13 12 13 14 16 16 16 15 14 12 11 11 11 12 12 12 12 12 13 13 12 12 12 12 12 11 11 11 11 11 11 10 10 9 9 9 8 8 8 8 8 7 7 7 7 7 7 7 7 7 7 7
24 23 22 21 20 19 18 17 16 15 14 14 13 13 13 13 12 12 13 14 15 16 16 16 14 13 12 12 12 12 12 12 13 12 12 12 12 12 12 12 12 12 12 11 11 11 11 10 10 9 9 9 8 8 8 8 8 7 7 7 7 7 7 7 7 7 7 7 7
Wind_Direction
237 238 239 240 242 244 245 247 249 251 252 255 257 259 260 262 263 265 266 267 268 269 269 269 269 269 269 269 268 267 266 265 264 264 263 261 260 260 260 260 261 261 262 262 262 262 261 260 257 256 256 257 259 260 263 267 269 270 269 267 264 261 258 253 251 253 254 253 252
237 238 239 240 242 244 245 247 249 251 253 255 257 259 261 262 263 264 265 266 266 267 267 267 266 266 265 265 265 265 264 263 263 263 262 261 260 259 259 259 259 260 260 260 260 260 260 260 260 260 261 262 263 264 266 268 268 266 264 262 260 258 256 253 253 256 257 255 253
237 238 239 241 242 244 245 247 249 252 253 255 257 259 260 261 261 262 262 263 264 264 263 262 262 262 262 263 263 263 263 262 262 261 260 260 259 258 258 257 257 257 258 258 259 260 260 261 261 262 263 264 264 264 265 264 263 262 261 259 256 254 254 254 256 258 258 255 253
237 238 239 240 242 243 245 248 250 252 253 255 256 257 258 258 258 259 259 260 260 259 259 258 258 259 260 261 261 262 262 261 261 260 259 258 258 257 256 256 256 256 257 257 258 259 260 260 261 261 262 262 261 261 261 261 261 260 259 256 253 251 251 254 258 259 258 255 254
236 237 238 240 241 243 245 247 249 250 251 252 252 253 253 254 254 254 254 255 254 255 256 256 257 258 259 260 260 260 260 260 259 258 258 257 256 256 255 255 255 255 255 256 256 257 258 258 259 259 259 259 259 259 259 260 259 258 255 252 251 251 252 254 256 257 258 258 258
235 237 238 239 240 242 243 244 245 246 247 247 247 247 248 249 249 249 249 250 252 253 254 255 256 258 259 259 259 259 258 258 258 257 256 255 255 255 254 254 253 253 253 254 254 255 256 256 257 257 257 259 259 260 260 259 257 254 253 252 252 253 253 254 255 256 258 258 259
234 235 236 237 237 238 239 240 241 241 242 242 242 243 244 245 246 247 248 250 252 253 254 255 256 257 257 257 257 257 256 256 256 255 254 253 253 253 252 252 252 252 252 253 253 254 254 254 254 254 255 258 261 261 260 258 255 254 253 253 254 254 255 256 258 260 261 260 258
231 231 232 233 234 234 235 236 237 237 238 239 240 242 244 246 247 248 250 252 253 254 255 256 256 256 256 256 255 255 255 254 254 253 253 252 252 252 251 251 251 251 251 252 253 253 253 252 251 251 252 255 258 259 258 256 255 253 253 254 255 256 257 259 262 265 265 262 257
228 228 229 230 231 232 233 234 235 236 237 240 242 245 247 248 249 251 252 253 255 256 256 256 256 256 255 255 254 254 254 254 253 253 253 252 252 251 251 251 251 251 251 251 252 252 252 252 251 250 251 252 253 253 253 253 253 253 254 256 257 258 259 261 263 266 266 264 259
226 227 229 230 231 233 234 235 237 239 241 244 246 248 249 250 252 253 254 255 256 257 257 256 256 256 255 254 254 254 254 254 254 254 254 253 253 252 252 252 252 252 252 252 252 252 252 252 251 250 249 248 247 248 251 253 255 256 257 258 260 261 261 260 260 261 262 263 261
228 229 230 231 233 234 236 238 240 243 245 247 248 249 251 251 253 254 256 257 257 257 257 257 256 255 255 255 255 255 255 256 256 255 255 255 254 254 253 253 253 253 254 254 254 253 252 251 251 248 246 245 245 247 251 255 259 261 261 261 260 259 258 257 257 259 261 264 265
231 232 233 234 236 238 240 242 244 246 247 249 250 250 251 253 254 255 256 257 257 257 257 257 257 256 256 256 256 257 257 257 257 257 256 256 256 256 256 255 255 255 256 256 256 255 253 252 252 251 250 249 250 252 255 259 262 265 265 263 259 256 256 258 260 263 266 268 269
234 235 236 238 240 242 244 246 248 249 250 250 251 252 252 254 255 256 256 257 257 258 258 258 258 257 257 257 258 258 258 258 258 258 258 258 258 258 258 257 257 257 258 258 257 257 256 254 254 255 257 259 260 261 262 264 265 266 266 265 261 259 259 262 266 268 270 271 270
237 239 240 242 245 247 248 250 251 252 252 253 253 254 254 255 256 256 257 257 258 258 258 259 258 258 258 258 259 259 259 259 259 259 259 260 260 259 259 259 259 259 260 260 260 260 259 259 258 259 261 263 265 266 266 267 267 267 266 265 264 263 262 263 265 267 267 267 267
240 242 244 247 249 250 252 253 254 254 255 255 255 255 256 256 257 258 258 258 258 258 258 258 258 258 258 259 259 259 259 260 260 260 261 261 261 260 261 261 262 262 262 263 263 263 263 263 262 262 263 265 266 267 268 268 269 268 267 264 263 262 262 263 263 264 265 266 267
243 245 247 249 250 252 253 254 255 256 256 256 256 257 257 257 258 259 259 259 259 258 258 258 258 258 258 258 259 259 259 259 260 260 261 261 262 262 262 263 264 264 265 266 266 266 266 266 266 266 266 267 267 268 269 270 270 269 267 263 261 260 261 261 262 263 266 267 268
244 246 248 250 251 252 254 255 256 256 257 257 258 258 258 258 259 259 259 259 259 259 259 258 258 258 258 258 258 258 258 259 259 260 261 262 262 263 264 264 265 266 267 267 268 268 268 268 268 268 268 268 269 269 269 269 269 268 266 264 262 261 261 262 263 265 266 267 268
245 247 249 251 252 253 254 255 256 257 257 258 259 259 259 259 259 259 259 260 260 259 259 259 259 258 258 258 258 258 258 258 259 260 261 262 263 263 264 264 265 266 267 268 269 269 270 269 269 269 269 269 269 269 269 269 268 267 266 265 264 264 263 264 264 265 265 266 266
247 249 251 252 254 255 256 257 257 258 259 259 260 260 261 261 260 260 260 260 260 260 260 260 259 258 258 257 257 258 258 259 259 260 261 261 262 263 264 265 265 266 267 268 269 269 270 270 270 269 269 269 268 268 267 267 266 266 265 265 265 265 265 265 264 264 264 264 264
250 251 253 255 256 257 258 259 260 261 261 262 262 263 263 263 262 262 261 261 261 261 260 260 259 258 258 257 257 257 258 259 259 260 261 262 262 263 264 265 266 267 267 268 269 269 269 270 269 269 269 268 267 266 265 265 264 264 264 264 265 265 264 264 264 263 263 263 262
253 254 256 257 258 260 261 262 263 264 265 266 266 266 265 265 264 264 263 262 261 260 260 259 258 257 257 257 256 257 257 258 259 260 261 262 262 264 265 266 267 268 268 268 269 269 269 268 268 268 267 266 265 264 264 263 263 263 263 264 264 264 263 262 262 261 261 260 260
255 257 258 259 261 263 264 266 268 269 270 270 269 268 267 266 265 264 263 261 260 259 258 257 256 256 256 256 256 256 257 258 259 260 261 262 263 264 265 266 267 267 267 267 267 267 267 267 266 266 265 264 264 263 263 263 262 262 262 262 262 262 261 260 259 258 257 257 256
259 261 262 263 265 267 270 272 274 275 275 274 273 271 269 267 266 264 262 260 258 256 255 254 254 254 254 255 256 256 257 258 259 260 261 262 263 264 265 266 266 266 266 265 265 265 265 265 264 264 263 263 263 262 262 261 261 261 260 260 259 259 258 256 255 254 254 253 254
263 265 266 268 271 273 276 278 280 280 280 278 276 274 271 269 266 264 261 259 256 255 253 252 252 253 254 255 255 256 257 258 259 261 262 262 263 264 264 264 264 263 264 264 263 263 263 262 262 262 262 261 260 260 259 259 258 257 257 256 255 255 254 252 251 251 251 252 253
265 268 270 273 275 278 281 283 284 284 283 281 279 277 274 271 268 264 261 258 256 254 252 252 252 253 253 254 255 256 257 258 260 261 261 262 262 262 262 262 262 262 261 261 260 259 259 259 260 260 259 258 257 256 255 254 254 253 253 252 251 250 250 250 250 250 251 253 254
267 269 272 275 279 282 285 287 287 287 285 283 282 280 278 274 271 267 263 259 256 254 253 252 252 252 253 254 255 256 257 258 259 259 260 260 260 260 260 260 260 259 258 256 255 256 256 257 257 256 255 254 252 251 250 249 249 248 248 249 248 248 248 249 250 251 252 252 253
267 270 273 277 281 285 288 289 289 288 286 285 283 282 280 277 274 270 265 261 258 256 254 252 252 252 253 253 254 255 257 257 257 258 258 258 257 257 257 257 256 255 252 251 251 253 254 254 253 251 249 247 246 245 245 245 245 246 246 247 247 248 247 247 248 249 250 249 247
268 271 275 279 283 287 289 291 290 288 286 284 283 281 280 278 274 270 266 262 259 257 254 253 252 251 252 253 254 254 255 256 256 256 256 255 255 254 253 252 250 248 247 247 249 250 251 250 248 245 243 242 242 242 242 243 243 244 244 245 245 245 245 244 245 245 244 242 238
268 272 276 281 285 289 291 292 290 288 285 284 282 281 279 276 272 269 265 261 259 256 254 252 251 251 251 252 252 253 253 254 254 254 253 253 251 249 247 245 243 243 243 245 247 247 246 244 242 240 239 238 239 240 241 241 241 241 241 241 241 241 240 239 238 237 234 231 228
269 273 277 282 286 290 292 293 291 288 286 284 283 281 278 275 272 267 263 260 257 254 252 251 250 249 249 249 250 251 252 252 252 251 249 248 245 243 240 239 239 239 241 242 242 242 241 239 237 237 236 237 237 238 238 237 237 236 236 235 234 233 231 230 228 226 222 219 216
269 273 277 282 287 291 293 293 291 289 287 285 284 282 279 276 272 268 263 259 255 252 250 248 246 246 246 247 248 249 249 249 248 246 244 241 238 236 235 235 236 237 238 238 237 237 236 234 234 234 234 235 235 234 233 232 231 230 229 227 225 222 220 218 216 214 212 212 212
269 272 277 282 287 291 293 293 291 289 287 286 283 281 278 276 273 268 263 258 253 249 246 244 243 243 243 244 245 246 246 245 243 240 237 233 232 232 233 234 235 235 234 234 233 232 232 231 231 231 231 231 230 228 227 226 224 222 219 217 214 212 210 209 209 209 211 214 218
269 272 277 282 287 291 292 292 290 288 286 284 281 278 276 275 273 268 263 256 250 246 243 242 241 241 241 241 241 241 240 239 236 234 231 229 229 230 232 234 233 232 230 229 228 228 228 227 226 226 226 224 222 220 216 214 212 210 208 206 205 204 206 207 210 214 218 223 230
268 272 277 282 287 290 291 290 288 286 284 280 277 275 274 275 273 269 262 255 248 243 240 239 238 238 238 238 237 236 235 233 231 229 227 226 227 229 231 232 230 228 226 225 225 223 222 221 220 219 218 216 212 208 204 202 201 200 199 200 201 204 208 213 218 223 229 235 240
268 272 277 282 287 290 290 289 286 284 281 277 274 273 274 274 273 268 260 252 245 240 238 236 234 233 232 232 232 231 230 229 227 225 224 224 226 227 229 229 226 224 222 220 219 217 215 213 212 210 208 205 202 200 197 196 195 196 198 201 205 210 215 220 226 231 237 241 246
268 272 277 283 287 289 289 287 284 281 278 274 272 272 273 274 271 265 257 248 241 237 234 232 229 227 226 227 227 227 226 224 223 222 222 222 223 224 224 224 222 219 216 213 211 209 207 205 202 200 199 198 197 196 196 196 198 201 205 210 214 219 223 227 231 236 241 245 249
268 272 277 283 287 289 288 285 282 279 276 273 271 271 271 272 269 262 253 243 236 232 229 227 224 222 222 222 222 223 222 220 219 219 219 220 220 220 219 218 216 212 209 206 204 202 200 197 196 195 195 194 195 197 199 202 206 211 215 220 223 226 229 232 235 238 242 246 249
268 273 278 284 288 288 287 283 279 276 273 270 269 269 270 269 266 259 249 238 230 225 223 221 221 220 221 222 222 221 219 217 216 216 216 216 215 214 213 211 208 205 202 200 198 197 195 194 193 194 195 196 199 202 205 210 215 220 224 227 229 230 231 234 236 238 240 243 245
268 273 279 284 287 287 285 280 276 272 269 267 267 268 268 268 264 256 245 234 226 221 220 219 220 221 222 224 224 222 218 216 214 214 213 212 210 208 206 203 200 198 197 196 195 194 193 193 195 197 200 202 205 209 213 217 221 224 227 229 230 231 232 233 234 235 235 236 238
268 273 279 284 287 286 282 276 272 268 265 264 266 267 267 265 261 253 241 230 224 221 220 220 220 222 224 225 222 219 216 214 213 211 210 208 205 202 198 195 193 193 193 193 193 193 195 196 199 202 206 209 212 215 219 222 224 226 227 228 230 230 231 232 232 231 230 230 233
269 274 280 285 286 284 279 273 267 264 261 262 264 266 266 262 256 246 236 229 224 222 220 220 220 221 222 221 218 214 211 209 208 207 205 204 201 197 194 190 190 191 193 194 194 196 198 201 204 208 211 214 216 219 222 225 224 225 225 227 228 228 229 229 230 229 228 227 229